This demonstration page uses our WeatherBlox Daily Observations layout. Learn more.

38.88101, -77.10428

Hourly Observations for August 2, 2016

Temp ( °F °C ) Dew Point ( °F °C ) Humidity (%) Winds ( mph kmh ) Pressure ( in mb ) Visibility ( mi km ) Precip ( " mm )
12:52 am 00:52 Mostly Cloudy 77 25 71 21.7 82 82 E 3 6 30.03 1017 10 16.09344 0 0
1:52 am 01:52 Cloudy 78 25.6 72 22.2 82 82 NE 10 17 30.03 1017 10 16.09344 0 0
2:52 am 02:52 Mostly Cloudy 76 24.4 72 22.2 88 88 NE 9 15 30.03 1017 10 16.09344 0 0
3:52 am 03:52 Partly Cloudy 76 24.4 72 22.2 88 88 Calm 30.03 1017 10 16.09344 0 0
4:52 am 04:52 Partly Cloudy 75 23.9 72 22.2 90 90 Calm 30 1016 10 16.09344 0 0
5:52 am 05:52 Partly Cloudy 76 24.4 72 22.2 88 88 NE 5 7 30.03 1017 10 16.09344 0 0
6:27 am 06:27 Mostly Cloudy 76 24.4 73 22.8 91 91 NNE 7 11 30.03 1017 10 16.09344 0 0
6:52 am 06:52 Mostly Cloudy 76 24.4 73 22.8 91 91 NE 7 11 30.03 1017 10 16.09344 0 0
7:52 am 07:52 Mostly Cloudy 77 25 73 22.8 88 88 ENE 8 13 30.03 1017 10 16.09344 0 0
8:24 am 08:24 Mostly Cloudy 81 27 73 23 79 79 NE 9 15 30.06 1018 10 16.09344 0 0
8:52 am 08:52 Mostly Cloudy 80 26.7 72 22.2 76 76 NE 10 17 30.06 1018 10 16.09344 0 0
9:52 am 09:52 Mostly Cloudy 82 27.8 73 22.8 74 74 NE 7 11 30.06 1018 10 16.09344 0 0
10:52 am 10:52 Partly Cloudy 84 28.9 71 21.7 65 65 NE 7 11 30.06 1018 10 16.09344 0 0
11:52 am 11:52 Partly Cloudy 86 30 69 20.6 57 57 ENE 6 9 30.06 1018 10 16.09344 0 0
12:52 pm 12:52 Partly Cloudy 89 31.7 70 21.1 53 53 N 3 6 30.06 1018 10 16.09344 0 0
1:52 pm 13:52 Mostly Cloudy 89 31.7 69 20.6 52 52 Calm 30.06 1018 10 16.09344 0 0
2:52 pm 14:52 Mostly Cloudy 91 32.8 69 20.6 49 49 NE 9 15 30.03 1017 10 16.09344 0 0
3:52 pm 15:52 Mostly Cloudy 90 32.2 70 21.1 52 52 E 9 15 30.03 1017 10 16.09344 0 0
4:52 pm 16:52 Partly Cloudy 89 31.7 69 20.6 52 52 ENE 9 15 30 1016 10 16.09344 0 0
5:52 pm 17:52 Mostly Cloudy 88 31.1 69 20.6 54 54 E 7 11 30.03 1017 10 16.09344 0 0
6:52 pm 18:52 Partly Cloudy 86 30 68 20 55 55 ESE 10 17 30.03 1017 10 16.09344 0 0
7:52 pm 19:52 Mostly Cloudy 83 28.3 71 21.7 67 67 E 10 17 30.03 1017 10 16.09344 0 0
8:47 pm 20:47 Mostly Cloudy 81 27 73 23 79 79 ESE 12 19 30.06 1018 10 16.09344 0 0
8:52 pm 20:52 Mostly Cloudy 81 27.2 73 22.8 77 77 E 13 20 30.06 1018 10 16.09344 0 0
8:54 pm 20:54 Partly Cloudy 81 27 73 23 79 79 E 14 22 30.06 1018 10 16.09344 0 0
9:52 pm 21:52 Mostly Cloudy 79 26.1 70 21.1 74 74 ESE 14 22 30.09 1019 10 16.09344 0 0
10:21 pm 22:21 Cloudy 79 26.1 70 21.1 74 74 E 12 19 30.09 1019 10 16.09344 0 0
10:50 pm 22:50 Cloudy 77 25 70 21 79 79 E 10 17 30.09 1019 10 16.09344 0 0
10:52 pm 22:52 Cloudy 77 25 70 21 79 79 E 10 17 30.09 1019 10 16.09344 0 0
11:39 pm 23:39 Cloudy 76 24.4 67 19.4 74 74 ESE 10 17 30.12 1020 10 16.09344 0 0
11:52 pm 23:52 Cloudy 76 24.4 67 19.4 74 74 E 7 11 30.12 1020 10 16.09344 0 0

Powered by AerisWeather